Theta_e
318 319 319 320 319 320 322 320 314 309 308 309 307 312 312 311 308 313 313 303 303 304 307 308 307 307 307 306 307 306 306 307 307 308 308 309 309 310
310 313 314 313 316 319 322 321 318 315 310 312 311 310 312 311 308 312 311 304 303 302 304 307 308 307 306 306 306 305 306 306 307 307 307 307 307 308
308 308 311 316 313 315 316 316 315 315 310 310 310 310 312 311 310 312 310 311 309 304 303 304 305 305 305 305 305 305 305 306 306 306 306 306 306 306
304 306 305 307 312 313 310 315 314 315 309 306 309 308 310 313 313 312 311 310 310 307 303 304 305 306 306 306 306 306 306 306 305 305 305 305 305 306
304 304 306 309 311 309 310 310 310 310 311 307 306 309 309 311 311 313 313 313 311 308 306 307 307 306 307 307 306 306 306 305 305 305 304 304 303 303
306 307 307 308 309 310 310 311 311 309 309 307 306 307 309 312 311 309 308 311 309 309 310 308 306 307 307 306 306 305 305 304 303 303 303 302 302 302
307 307 308 309 310 311 309 311 311 309 307 306 306 307 307 308 308 310 308 308 309 309 306 306 306 307 307 308 308 308 306 304 303 301 300 300 299 300
307 307 309 309 309 308 308 310 312 310 309 307 307 308 310 309 310 309 306 305 302 308 305 304 306 305 306 306 306 303 303 302 301 301 301 300 300 299
306 306 304 305 308 308 308 308 307 307 307 311 309 310 310 312 312 309 308 306 303 305 305 302 305 303 306 305 305 303 302 301 301 300 300 299 298 298
306 307 307 308 309 310 310 309 310 312 312 310 312 313 313 314 312 310 308 306 305 306 308 299 303 302 304 305 303 303 301 301 300 299 299 298 297 296
307 309 309 310 305 301 308 309 310 311 305 304 302 301 300 300 301 304 301 299 300 301 305 301 301 301 302 302 303 303 301 300 299 298 298 298 297 297
308 310 306 308 301 300 308 310 309 311 312 310 306 303 301 305 300 303 301 299 299 299 304 300 300 300 297 302 302 302 302 300 299 299 298 298 297 300
307 308 310 301 299 298 299 312 310 310 307 309 308 308 309 308 306 307 308 304 301 300 304 302 300 299 299 299 300 301 301 301 301 302 299 298 298 298
311 312 312 299 298 298 300 302 299 299 307 306 305 304 304 304 305 306 308 307 306 305 306 307 301 300 298 299 297 300 300 301 301 301 301 301 299 299
313 307 299 298 297 298 298 299 296 305 304 303 303 303 304 305 308 307 308 308 308 308 306 307 303 302 299 298 298 298 299 299 299 298 301 300 300 301
304 308 307 304 301 302 303 304 306 306 305 304 303 304 305 305 304 304 303 304 303 303 307 308 306 304 300 299 298 298 298 296 298 298 298 299 299 300
308 309 307 305 304 304 305 306 307 306 304 304 303 303 303 303 303 304 303 303 301 300 301 303 307 305 303 302 296 298 298 296 297 299 298 297 298 298
304 303 303 303 302 302 303 304 306 304 305 305 304 304 303 303 303 303 303 302 302 301 300 301 301 299 298 300 300 297 296 295 298 298 295 292 292 296
301 303 303 304 304 305 305 305 305 306 308 306 305 304 304 304 302 302 302 301 300 299 299 302 300 298 296 292 296 297 294 295 295 292 292 291 291 293
303 304 305 306 307 307 307 307 307 307 307 306 306 305 305 304 302 302 300 300 300 298 298 300 298 298 298 294 291 293 294 296 294 291 291 293 294 295
307 307 308 308 308 308 308 308 309 307 307 307 306 305 304 303 300 299 298 291 293 298 297 298 299 288 298 299 293 292 296 296 296 293 292 290 289 289
309 309 309 310 310 309 309 309 308 307 307 306 304 303 302 300 298 298 297 295 298 297 298 299 299 297 295 293 292 293 294 296 296 296 295 294 290 286
308 309 309 309 309 309 307 307 306 304 303 303 301 299 298 297 298 296 295 297 298 296 297 296 295 294 292 293 292 293 292 292 291 290 292 296 297 298
Wind_Speed
7 6 6 5 7 8 9 9 12 9 10 7 6 6 5 6 4 2 1 6 1 0 3 5 4 5 8 9 9 9 9 10 11 13 15 16 15 14
6 5 5 4 5 4 6 7 7 6 9 10 8 9 6 5 6 4 2 5 7 2 3 6 8 8 9 10 10 10 12 13 14 15 15 15 18 19
7 6 9 2 5 5 5 4 4 5 9 9 7 8 8 6 6 5 5 5 6 8 4 6 8 10 11 11 11 13 14 15 15 17 17 20 20 20
8 10 9 5 5 6 3 6 5 4 10 11 10 9 8 7 4 4 5 5 5 9 6 9 11 11 12 12 12 14 16 16 18 19 22 21 22 24
7 9 6 4 7 7 6 5 7 6 8 9 7 7 6 6 8 8 6 6 7 6 14 15 14 12 13 13 14 16 17 17 17 17 20 21 24 25
5 7 6 5 6 7 7 7 7 7 6 6 7 6 6 7 5 6 5 6 6 6 6 10 7 13 15 18 19 20 18 17 16 16 18 22 22 23
7 5 5 6 8 5 6 6 7 6 6 6 5 5 5 6 6 3 5 6 7 7 7 7 8 9 10 16 19 20 16 12 14 18 22 24 24 24
7 6 6 5 5 3 5 3 2 4 5 4 4 3 3 5 6 6 6 7 8 6 6 9 9 11 10 11 7 6 12 14 18 22 23 24 24 25
5 4 4 4 6 6 4 4 4 3 3 3 5 5 5 6 7 7 8 8 10 8 9 11 10 12 11 11 8 10 15 18 20 21 23 25 27 27
6 7 5 6 6 6 8 8 7 8 9 8 8 7 7 7 6 8 9 10 11 11 11 13 10 13 12 11 11 13 15 18 19 20 24 27 28 28
6 7 8 8 8 5 6 7 8 8 6 1 5 4 4 4 6 8 9 11 11 10 8 12 12 13 13 14 13 11 13 17 20 23 26 28 28 28
9 9 9 8 9 10 10 9 9 8 8 8 8 9 10 10 12 11 11 12 11 12 9 11 12 13 17 13 13 14 15 18 16 21 26 28 29 17
8 8 8 14 10 10 11 10 8 6 4 7 9 9 10 11 10 12 13 12 11 12 9 10 13 14 15 17 15 15 15 16 16 17 21 22 22 22
8 7 5 13 10 11 10 9 3 2 8 9 9 9 9 9 10 10 11 11 12 15 14 14 13 14 15 15 18 15 16 15 16 16 17 18 16 18
10 3 10 7 6 6 10 4 4 8 10 9 9 9 9 9 9 9 11 15 16 16 13 16 14 15 15 16 17 17 17 16 16 15 16 16 15 13
8 6 3 3 7 5 4 10 10 10 10 10 10 9 9 9 9 10 11 11 12 12 14 15 15 16 16 16 16 18 16 17 15 15 16 16 15 14
6 6 8 9 8 8 8 9 9 10 11 11 11 10 10 10 10 10 11 13 13 13 14 13 14 15 15 17 15 17 16 17 16 16 18 17 16 14
6 8 7 7 8 9 9 9 10 11 10 9 9 10 11 11 12 12 13 13 12 11 13 14 13 14 15 16 16 15 16 17 17 18 18 17 18 14
8 9 8 8 9 9 9 9 9 9 9 9 11 12 12 13 12 14 12 11 11 10 12 15 13 13 14 17 13 10 17 17 18 18 15 15 18 17
11 10 10 9 9 9 9 9 9 9 10 11 12 12 13 13 14 12 11 14 13 11 14 15 14 12 12 15 18 16 19 17 16 17 17 16 17 30
12 12 10 9 9 9 9 10 11 11 11 11 12 12 13 12 10 10 11 8 9 15 16 16 13 8 14 14 16 17 13 18 20 18 17 17 18 17
10 10 10 10 10 10 10 10 11 11 11 11 10 10 9 10 9 8 8 9 14 14 15 14 14 13 14 14 18 24 19 20 22 28 29 27 14 10
10 10 10 10 9 10 9 10 10 10 10 8 8 10 9 7 11 9 9 13 14 13 13 14 13 14 14 14 17 16 26 23 17 18 18 31 27 25
Wind_Direction
166 157 199 184 204 208 180 175 163 169 181 171 171 181 164 176 104 165 212 108 142 330 272 219 266 306 313 312 310 307 301 305 308 313 316 315 310 306
109 114 92 145 167 202 197 177 177 183 181 159 189 170 179 165 153 226 133 230 184 196 258 256 269 288 299 303 302 301 301 302 303 302 302 304 305 306
83 79 85 102 133 163 132 126 152 205 146 158 150 161 184 208 169 208 217 275 184 175 232 277 283 286 290 291 291 290 289 292 292 291 297 303 299 296
31 77 55 60 85 100 136 120 148 150 138 166 161 164 205 200 221 235 256 277 285 173 206 258 265 271 273 269 266 273 280 282 284 290 299 296 294 293
24 46 88 172 126 122 133 140 135 136 156 160 159 170 178 201 207 228 240 259 261 214 217 237 242 251 261 270 271 268 272 274 278 284 285 286 291 290
163 184 152 116 108 132 127 118 114 137 124 145 149 174 209 175 239 281 266 247 284 305 295 254 256 245 241 246 254 260 262 263 269 274 280 288 285 284
169 160 153 154 146 95 128 138 153 150 159 167 178 196 208 209 221 278 286 282 275 266 267 267 278 277 273 237 252 246 250 256 257 273 282 281 282 282
158 175 163 141 110 89 61 72 106 160 182 219 207 229 251 254 248 262 274 282 288 277 277 276 286 284 289 287 311 238 249 256 261 267 271 274 276 276
164 169 193 162 167 170 171 194 222 262 302 287 253 259 285 267 287 286 268 286 287 298 293 281 272 271 276 287 258 237 240 243 249 259 267 269 270 271
193 194 208 177 198 195 189 202 214 205 210 220 232 259 264 264 265 269 282 282 266 250 244 274 284 284 291 290 266 244 244 252 255 253 255 260 264 265
218 218 217 215 171 206 248 249 243 243 149 248 305 321 317 287 286 289 272 266 269 277 275 278 287 292 291 293 288 269 257 253 254 251 257 261 262 264
223 224 215 244 160 184 223 236 243 251 236 212 224 239 243 247 227 244 265 266 275 279 282 292 291 297 293 293 296 300 296 287 272 266 264 262 262 262
230 215 220 198 205 202 222 246 253 290 232 262 257 249 241 238 240 217 232 253 275 277 291 298 293 294 289 295 296 302 302 299 296 290 280 268 256 247
238 234 224 168 193 205 209 239 120 271 258 258 249 254 256 256 249 239 249 262 275 285 292 292 288 289 294 294 295 295 294 295 296 292 292 288 280 263
254 84 105 151 166 209 238 251 192 232 249 254 254 256 261 264 278 273 260 257 256 255 259 270 274 282 282 288 295 293 299 295 297 296 300 289 289 285
210 218 213 237 241 279 197 202 230 243 247 251 257 263 262 261 259 259 266 271 276 278 281 278 277 276 278 282 291 291 292 295 296 288 283 278 274 266
209 215 203 214 223 220 226 235 231 226 230 237 246 255 259 264 264 265 267 270 272 283 287 285 280 279 277 283 285 288 293 290 287 291 293 288 278 277
209 240 228 231 230 230 228 229 223 219 241 253 257 261 266 269 271 269 268 270 276 276 283 288 292 294 293 282 268 285 290 291 293 295 289 283 283 279
234 242 233 236 237 235 242 248 256 264 279 270 265 269 272 269 265 269 271 272 279 294 301 286 295 299 289 287 300 276 291 287 289 285 280 276 278 281
254 241 238 239 241 246 255 262 267 269 266 264 265 266 269 273 277 276 281 279 282 289 285 285 287 289 301 299 294 289 247 277 285 286 287 280 275 280
217 224 240 254 261 266 270 273 277 277 283 292 292 287 288 292 284 281 279 278 283 284 276 282 300 310 292 292 292 291 291 274 279 287 292 287 287 288
250 253 257 258 259 265 269 275 281 282 282 278 284 294 297 291 299 298 289 279 275 277 280 296 306 305 303 301 297 302 302 304 300 297 287 271 269 272
249 257 269 274 277 280 287 286 290 296 294 296 306 310 302 281 282 277 273 271 273 280 293 299 306 308 305 301 298 302 302 306 309 310 303 301 290 265